051008 J76  0.6-  0.1-    051124 619 (3.2+  0.1-)   060311 349  1.2-  1.5-  

051008 A01  0.3-  0.3+    051124 619 (1.2+  4.4-)   060311 349  1.0-  1.8-  

051008 A01  0.3-  0.2+    051124 J97  0.9-  0.3-    060311 939  0.4-  1.2+  

051009 A01  0.4-  0.3+    051124 J97  0.0   0.4-    060311 939  0.1-  1.1+  

051009 A33  0.1+  0.1+    051124 J97  0.2+  0.1-    060311 232  0.6+  0.9-  

051009 A33  0.0   0.0     051124 J97  0.5-  0.2-    060311 232  0.5+  0.7-  

051010 I77  0.7-  0.1+    051124 J97  0.4-  0.5-    060311 232  0.7+  0.2-  

051010 I77  0.2+  0.8+    051126 442  0.7+  0.2-    060311 939  0.4+  0.6+  

051010 I77  0.2-  0.2-    051126 232  1.2+  0.7-    060311 213  1.2-  0.1+  

051010 703 (2.7-  3.5-)   051126 232  1.2+  0.3-    060311 213  1.0+  1.2+  

051010 703 (1.9-  2.6-)   051126 232  0.0   0.6-    060315 J97  0.3-  0.0   

051010 703 (1.6-  2.1-)   051126 939  0.3+  0.1-    060319 215  0.5-  0.7+  

051010 703  1.2-  1.4-    051126 939  0.0   0.1-    060319 215  0.4+  0.1+  

051010 A32  0.4-  0.1-    051126 939  0.0   0.2-    060324 H06  0.1-  0.0   

051010 A32  0.4-  0.1+    051127 379  0.5-  0.6+    060324 H06  1.7-  0.6-  

051010 A32  0.2-  0.1+    051127 379  0.0   0.1+    060325 H06  0.1+  0.2-  

051010 A32  0.3-  0.1+    051127 379  0.9-  0.4+    060325 H06  0.2-  0.1+  

051012 379  0.3-  0.3-    051127 372  0.2-  0.1+    060325 349  1.5-  1.1+  

051012 379  0.3+  0.4-    051127 213  0.3-  0.6+    060325 349  1.4-  1.1+  

051012 372  1.9-  0.9+    051127 213  0.1-  0.1+    060325 349  1.4-  0.7+  

051012 152  0.2-  1.5-    051127 213  0.3-  0.6+    060325 232  0.3-  0.5-  

051012 152  0.5-  0.2+    051128 704 (1.4+  3.8+)   060325 232  0.3-  0.4-  

051012 152  0.6-  0.4+    051128 704 (2.1-  1.1+)   060325 232  0.9+  0.1-  

051012 152  0.4-  0.4+    051128 704  0.8-  1.8-    060325 939  0.2+  0.2+  

051012 J97  0.2+  0.5+    051128 442  0.1-  0.8+    060325 939  0.2+  0.5+  

051012 A32  0.4-  0.0     051128 J67  0.3+  0.8-    060325 939  0.6+  0.5+  

051012 A32  0.3-  0.0     051128 J97  0.7-  0.5-    060918 704  0.5+  0.4-  

051012 A32  0.1-  0.1-    051128 J97  0.3+  0.1-    060918 704  0.9-  1.8+  

051012 A32  0.3-  0.1-    051128 J97  0.0   0.2-    060918 704  0.8+  0.1-  

051012 A32  0.3-  0.2-    051130 442  0.0   0.6-    060918 704  0.3+  1.3+  

051013 D88  0.1+  0.5-    051130 442  1.4+  1.8+    060918 704  0.2+  1.9+  

051013 D88  0.4-  0.2-    051201 644  0.3+  0.4-    060929 704  1.1-  0.1+  

051013 D88  0.5-  0.5-    051201 644  0.7+  0.0     060929 704  0.4+  0.4-  

051014 147  0.1-  0.0     051201 644  0.4+  0.0     060929 704  0.4+  1.3+  

051014 147  0.0   0.0     051201 442  0.5-  0.3+    061103 850  0.5+  0.1-  

051014 147  0.1-  0.0     051202 349  0.3+  1.1-    061103 850  0.5+  0.6+  

051014 147  0.1-  0.0     051202 349  0.6+  1.2-    061103 850  0.3+  0.3+  

051014 147  0.2-  0.1+    051202 349  0.7+  0.9-    061103 850  0.6-  0.8+  

051015 J76  0.5-  0.3+    051202 232  1.0+  0.4-    061104 850  0.5+  0.5-  

051015 J76  0.3-  0.3+    051202 232  0.1-  0.8-    061104 850  0.2+  0.4+  

051015 J76  0.4-  0.5+    051202 232  0.8+  0.1+    061118 232  0.7-  1.2-  

051015 939  0.8-  0.1+    051203 349  0.3+  0.1-    061118 232  0.2-  0.2-  

051015 J97  0.2-  0.4-    051203 349  0.4+  0.1+    061118 232  0.8-  1.0-  

051015 J97  0.1-  0.4-    051203 D88  0.2+  0.2+    061122 704 (2.7+  0.1-) 

051015 939  0.7-  0.2+    051203 D88  0.4-  0.0     061122 704 (2.3+  0.6-) 

051015 J97  0.3-  0.0     051203 D88  0.5-  0.1+    061122 704  1.2+  0.4+  

051015 J97  0.1-  0.4-    051203 442  1.1-  1.1-    061122 704  1.1+  0.2+  

051015 J97  0.6-  0.3-    051203 442  0.7-  0.1+                            

051015 504  0.1+  1.9+    051203 565  0.0   1.3+                            



NAKANO

         **** Don't distribute anyone except personal use only ****

                (C) Copyright 2006 OAA/ComputingSection

write mail from CFAD0::NAKANO on 2006-12-06 04:14:05(JST).

 



    P/2005 R2 (Van Ness)

Epoch 2005 Jan. 30.0 TT = JDT 2453400.5  

T 2005 Feb. 10.09524 TT                                 Nakano

q   2.1280647            (2000.0)            P               Q

n   0.15543587     Peri.    3.08337     +0.71643113     +0.68533469

a   3.4258517      Node   312.72892     -0.64383095     +0.57740343

e   0.3788217      Incl.   10.23698     -0.26871573     +0.44375854

P   6.34 (+/- 0.02 day)

From 633 observations 2005 Aug. 4-Dec. 27, mean residual 0".51.



NAKANO

         **** Don't distribute anyone except personal use only ****

                (C) Copyright 2006 OAA/ComputingSection

write mail from CFAD0::NAKANO on 2006-01-01 05:09:23(JST).

 

    P/2005 R2 (Van Ness)

Epoch 2005 Jan. 30.0 TT = JDT 2453400.5  

T 2005 Feb. 10.09276 TT                                 Nakano

q   2.1280811            (2000.0)            P               Q

n   0.15544030     Peri.    3.08390     +0.71643169     +0.68533396

a   3.4257866      Node   312.72844     -0.64383104     +0.57740437

e   0.3788051      Incl.   10.23696     -0.26871401     +0.44375844

P   6.34 (+/- 0.02 day)

From 533 observations 2005 Aug. 4-Nov. 27, mean residual 0".47.



NAKANO

         **** Don't distribute anyone except personal use only ****

                (C) Copyright 2005 OAA/ComputingSection

write mail from CFAD0::NAKANO on 2005-12-08 01:42:10(JST).

 



    P/2005 R2 (Van Ness)

Epoch 2005 Jan. 30.0 TT = JDT 2453400.5  

T 2005 Feb. 10.08169 TT                                 Nakano

q   2.1281340            (2000.0)            P               Q

n   0.15545942     Peri.    3.08372     +0.71642498     +0.68534090

a   3.4255056      Node   312.72807     -0.64383714     +0.57739848

e   0.3787387      Incl.   10.23693     -0.26871729     +0.44375539

P   6.34 (+/- 0.07 day)

From 336 observations 2005 Aug. 4-Oct. 27, mean residual 0".48.



NAKANO

         **** Don't distribute anyone except personal use only ****

                (C) Copyright 2005 OAA/ComputingSection

write mail from CFAD0::NAKANO on 2005-11-03 23:39:18(JST).

 

    P/2005 R2 (Van Ness)

T 2005 Feb. 10.24061 TT                                 Nakano

q   2.1278057            (2000.0)            P               Q

n   0.15510778     Peri.    3.09156     +0.71673982     +0.68501683

a   3.4306810      Node   312.74624     -0.64355002     +0.57767834

e   0.3797716      Incl.   10.23780     -0.26856545     +0.44389153

P   6.35 (+/- 0.22 day)

From 126 observations 2005 Aug. 4-Sept. 30.



NAKANO

         **** Don't distribute anyone except personal use only ****

                (C) Copyright 2005 OAA/ComputingSection

write mail from CFAD0::NAKANO on 2005-10-01 02:43:05(JST).

 





◎P/2005 R2の軌道と予報位置です



  以下は,山本速報2487より抜粋.

「OAA計算課では,2005年8月4日から9月25日までに行なわれた118個の観測か

ら次の軌道を決定した.上尾の門田健一氏(K. Kadota, Ageo)は,彗星のCCD全

光度を9月14日,16日には14.8等,17日には14.9等,18日には15.0等と報告して

いる.なお,彗星は,周期が6年ほどの新周期彗星であった」



  9月29日と30日の観測が,それぞれ,秦野の浅見敦夫氏とシェロードから報告

されました.浅見氏の CCD全光度は13.8等と,YC 2487の予報よりさらに1等級

ほど明るいようです.位置予報は,同号を参照.



    P/2005 R2 (Van Ness)

T 2005 Feb. 10.24061 TT                                 Nakano

q   2.1278057            (2000.0)            P               Q

n   0.15510778     Peri.    3.09156     +0.71673982     +0.68501683

a   3.4306810      Node   312.74624     -0.64355002     +0.57767834

e   0.3797716      Incl.   10.23780     -0.26856545     +0.44389153

P   6.35 (+/- 0.22 day)

From 126 observations 2005 Aug. 4-Sept. 30.



NAKANO

         **** Don't distribute anyone except personal use only ****

                (C) Copyright 2005 OAA/ComputingSection

write mail from CFAD0::NAKANO on 2005-10-01 02:03:07(JST).

 

◎P/2005 R2の軌道と予報位置です



 上尾の門田健一氏から9月11日の観測が報告されました.氏の CCD全光度は,

14.8等でした.



    P/2005 R2 (Van Ness)

T 2005 Feb. 11.01571 TT                                 Nakano

q   2.1282067            (2000.0)            P               Q

n   0.15352088     Peri.    3.21433     +0.71929803     +0.68234731

a   3.4542817      Node   312.83632     -0.64127778     +0.57997175

e   0.3838931      Incl.   10.24572     -0.26715754     +0.44501115

P   6.42 (+/- 2.50 day)

From 35 observations 2005 Aug. 16-Sept. 11.

Residuals in seconds of arc 

2005/                     050910 A50  0.2+  0.0     050911 232  0.0   0.2+  

050816 704 (3.0-  0.5+)   050910 A50  0.1-  0.4+    050911 I77  0.1-  0.2-  

050816 704  0.2-  1.3-    050910 A50  0.1-  0.4+    050911 I77  0.0   0.4-  

050816 704  0.2-  0.4-    050910 A50  0.1-  0.5+    050911 I77  0.1-  0.3-  

050816 704  0.4+  1.7+    050910 232  0.1-  0.1+    050911 734  0.2+  0.1-  

050831 704 (0.3-  2.7-)   050910 232  0.1-  0.1-    050911 734  0.8+  0.1-  

050831 704 (4.1-  0.3-)   050910 232  0.0   0.2-    050911 854  0.2-  0.2+  

050831 704  0.6+  0.9-    050911 232  0.3+  0.2-    050911 854  0.3-  0.2+  

050831 704  0.6-  0.9+    050911 232  0.2+  0.3-    050911 854  0.2-  0.1+  

050831 704 (1.8+  2.7+)   050911 232  0.0   0.1-    050911 349  0.1-  0.2+  

050910 699(12.5-  6.7-)   050911 232  0.4+  0.4-    050911 349  0.1-  0.2+  

050910 699(19.7-  9.1-)   050911 232  0.0   0.0     050911 349  0.1+  0.2-  

050910 699(22.1- 10.0-)   050911 232  0.2-  0.1-    050911 349  0.2+  0.0   

050910 A50  0.2-  0.2+    050911 232  0.2+  0.2-                            

050910 A50  0.3-  0.2+    050911 232  0.1-  0.1-                            

 

Date/        TT  R.A.(2000) Decl.     Delta   r     Daily motion  Mag.  Moon Age

              h    h  m       。  ,                      ,  / PA 。  m1      。

2005 Sept.10 18  02 26.60  +28 38.0   1.893  2.587     5.1 / 334  14.5  154  .42

          11 18  02 26.43  +28 42.7   1.886  2.590     5.2 / 329  14.5  141  .53

          12 18  02 26.23  +28 47.1   1.880  2.594     5.2 / 325  14.5  127  .64

          13 18  02 26.00  +28 51.4   1.874  2.598     5.3 / 321  14.5  113  .75

          14 18  02 25.74  +28 55.5   1.868  2.601     5.4 / 316  14.5   99  .84

